Flag for Germany Weather past 2 weeks in Laatzen, Lower Saxony, Germany

Now
59 °F

Passing clouds.


Feels Like: 59 °F
Forecast: 50 / 75 °F
Wind: 2 mph from Southwest

Location: Hannover

Current Time: Aug 29, 2015 at 1:18:26 AM

Latest Report: Aug 28, 2015 at 11:00 PM


Visibility: 19 mi

Pressure: 30.16 "Hg

Humidity: 83%

Dew point: 54 °F

Location of LaatzenLocation

Historic Weather in Laatzen — Graph

°F

Laatzen temperature yesterday

Maximum temperature yesterday: 67 °F (at 4:00 PM)
Minimum temperature yesterday: 55 °F (at 6:00 AM)
Average temperature yesterday: 60 °F

Past Weeks' High & Low Weather Summary

 TemperatureHumidityPressure
High82 °F (Aug 14, 1:00 PM)100% (Aug 15, 3:00 AM)30.29 "Hg (Aug 15, 3:00 AM)
Low52 °F (Aug 22, 7:00 AM)30% (Aug 22, 1:00 PM)29.59 "Hg (Aug 24, 7:00 PM)
Average66 °F75%29.95 "Hg
* Reported Aug 14 1:00 AM — Aug 28 11:00 PM, Laatzen, Weather by CustomWeather, © 2015

Note: Actual official high and low records may vary slightly from our data, if they occured in-between our weather recording intervals... More about our weather records

Advertising

Laatzen weather history for previous 24 hours

 ConditionsComfort  
Time TempWeatherWind HumidityBarometerVisibility
11:00 PM
Fri, Aug 28
59 °FPassing clouds.2 mph83%30.16 "Hg19 mi
10:00 PM61 °FPassing clouds.2 mph78%30.14 "Hg25 mi
9:00 PM60 °FPassing clouds.1 mph82%30.13 "Hg28 mi
8:00 PM65 °FScattered clouds.1 mph66%30.10 "Hg28 mi
7:00 PM67 °FScattered clouds.2 mph59%30.09 "Hg19 mi
6:00 PM67 °FScattered clouds.2 mph64%30.09 "Hg19 mi
4:00 PM67 °FScattered clouds.6 mph62%30.08 "Hg19 mi
3:00 PM67 °FPassing clouds.5 mph63%30.07 "Hg22 mi
2:00 PM64 °FScattered clouds.5 mph70%30.07 "Hg19 mi
1:00 PM63 °FPartly sunny.3 mph72%30.06 "Hg12 mi
12:00 PM60 °FOvercast.3 mph79%30.06 "Hg12 mi
10:00 AM57 °FOvercast.3 mph89%30.03 "Hg7 mi
9:00 AM57 °FLow clouds.3 mph91%30.00 "Hg7 mi
8:00 AM56 °FFog.3 mph93%29.98 "Hg4 mi
7:00 AM56 °FFog.2 mph95%29.96 "Hg4 mi
6:00 AM55 °FPassing clouds.2 mph95%29.94 "Hg6 mi
5:00 AM56 °FOvercast.3 mph94%29.94 "Hg9 mi
4:00 AM56 °FLow clouds.2 mph95%29.92 "Hg9 mi
3:00 AM56 °FLow clouds.3 mph96%29.90 "Hg7 mi
2:00 AM56 °FLight rain. Overcast.2 mph95%29.88 "Hg8 mi
1:00 AM56 °FLight rain. Low clouds.3 mph96%29.89 "Hg5 mi
Weather by CustomWeather, © 2015

See weather overviewHow to use our weather pages